DRAGNSAT
1 35690U 09038B 10076.22711312 .05715194 12509-4 31481-3 0 3162
2 35690 051.6170 315.4586 0004999 310.9891 057.3269 16.42150010 36561
POLLUX
1 35693U 09038E 10087.99866888 .23496735 12787-4 17715-3 0 3529
2 35693 051.6099 254.5746 0006270 294.4866 097.5899 16.52338462 38395
CO-66
1 32791U 08021J 10176.22694704 .00000479 00000-0 67507-4 0 06998
2 32791 097.8947 240.8879 0014955 258.0188 101.9350 14.81677436116646
CO-58
1 28895U 05043F 10176.68584118 .00000132 00000-0 37025-4 0 6163
2 28895 098.0131 060.8821 0016727 257.6383 102.2967 14.59903806248228
MAST
1 31126U 07012K 10176.75754232 .00000172 00000-0 49244-4 0 08999
2 31126 097.9373 218.3276 0094226 198.7093 161.0621 14.53596464169305
DO-64
1 32789U 08021G 10176.82183942 .00000829 00000-0 11057-3 0 07187
2 32789 097.9018 242.0734 0014329 255.6671 104.2984 14.82186697116781
CP6
1 35004U 09028D 10176.94805716 .00006904 00000-0 14015-3 0 03285
2 35004 040.4598 153.0009 0019563 091.0811 269.2268 15.46379686062071
AEROCUB3
1 35005U 09028E 10176.97217937 .00020983 00000-0 34352-3 0 03729
2 35005 040.4679 149.9678 0016444 107.6024 252.6653 15.51791114062112
TACSAT-3
1 35001U 09028A 10176.98455324 .00003097 00000-0 76354-4 0 03209
2 35001 040.4539 161.2591 0020474 067.5897 292.7094 15.41858355061993
AAUSAT2
1 32788U 08021F 10177.15135082 .00000500 00000-0 69595-4 0 7003
2 32788 097.8948 241.9163 0014066 258.1388 101.8274 14.82038616116834
PHARMSAT
1 35002U 09028B 10177.32383088 .00002642 00000-0 64777-4 0 3027
2 35002 040.4672 157.1895 0022768 075.0759 285.2577 15.42381862 62069
HAWKSAT1
1 35003U 09028C 10177.34357173 .00005924 00000-0 12444-3 0 3249
2 35003 040.4581 151.6076 0020651 090.3837 269.9344 15.45535497 62132
FALCON
1 30776U 07006E 10177.57672451 .00000372 00000-0 29633-4 0 8571
2 30776 035.4348 347.2854 0001900 300.5397 059.5131 15.03695846181474
RS-30
1 32953U 08025A 10177.62708940 .00000010 00000-0 00000 0 0 8189
2 32953 082.5007 023.8086 0019940 081.3177 279.0156 12.43005735 94916
METEOR-M
1 35865U 09049A 10177.70481521 .00000176 00000-0 10000-3 0 4187
2 35865 098.7574 231.4355 0002677 357.2670 002.8441 14.21830720 40072
RS-38
1 35869U 09049E 10177.74564758 .00000177 00000-0 10000-3 0 4270
2 35869 098.7561 231.5095 0004588 349.2765 010.8248 14.21983928 40087
CAPE1
1 31130U 07012P 10177.78210900 .00000419 00000-0 10707-3 0 9195
2 31130 097.9366 216.6896 0102259 203.3080 156.3474 14.52191973169056
COMPASS
1 32787U 08021E 10177.82438518 .00000617 00000-0 84579-4 0 7082
2 32787 097.8940 242.4498 0014638 253.5367 106.4268 14.81896459116923
CASTOR
1 35694U 09038F 10177.92826428 .00090168 15068-4 13870-3 0 5057
2 35694 051.6320 147.8910 0001953 030.4851 329.6297 16.04207036 52627
HUBBLE
1 20580U 90037B 10178.02137213 .00000322 00000-0 11817-4 0 5906
2 20580 028.4684 175.6594 0003136 303.6438 056.3912 15.00989994906236
ISS
1 25544U 98067A 10178.03972080 .00006310 00000-0 51734-4 0 3949
2 25544 051.6470 180.1781 0009824 012.9677 028.9811 15.72002369665029
